| time (UTC) | temp C | wind direction | speed KPH | gust KPH | rain 1hr cm | rain 24hr cm | rain mn cm | humidity % | barometer mb |
| 20260506233531 | 8 | 294 | 1.6 | 6.4 | 0.00 | 1.65 | 0.00 | 91 | 1009.7 |
| 20260506233048 | 8 | 295 | 1.6 | 11.3 | 0.00 | 1.63 | 0.00 | 91 | 1009.8 |
| 20260506232530 | 8 | 0 | 1.6 | 11.3 | 0.00 | 1.63 | 0.00 | 91 | 1009.7 |
| 20260506232030 | 8 | 279 | 1.6 | 9.7 | 0.00 | 1.63 | 0.00 | 91 | 1009.5 |
| 20260506231538 | 8 | 328 | 1.6 | 9.7 | 0.00 | 1.63 | 0.00 | 91 | 1009.5 |
| 20260506231032 | 8 | 303 | 0.0 | 9.7 | 0.00 | 1.63 | 0.00 | 91 | 1009.6 |
| 20260506230531 | 8 | 0 | 0.0 | 9.7 | 0.00 | 1.63 | 0.00 | 91 | 1009.5 |
| 20260506230042 | 8 | 295 | 1.6 | 9.7 | 0.00 | 1.63 | 0.00 | 91 | 1009.5 |
| 20260506225530 | 8 | 0 | 0.0 | 9.7 | 0.00 | 1.85 | 0.00 | 91 | 1009.6 |
| 20260506225030 | 8 | 0 | 1.6 | 9.7 | 0.00 | 1.85 | 0.00 | 90 | 1009.5 |
| 20260506224549 | 8 | 285 | 1.6 | 9.7 | 0.00 | 1.85 | 0.00 | 90 | 1009.4 |
| 20260506224030 | 8 | 287 | 1.6 | 6.4 | 0.00 | 1.85 | 0.00 | 90 | 1009.4 |
| 20260506223531 | 8 | 0 | 1.6 | 6.4 | 0.00 | 1.85 | 0.00 | 90 | 1009.4 |
| 20260506223041 | 8 | 0 | 0.0 | 8.0 | 0.00 | 1.85 | 0.00 | 90 | 1009.4 |
| 20260506222531 | 8 | 0 | 0.0 | 8.0 | 0.00 | 1.85 | 0.00 | 90 | 1009.4 |
| 20260506222033 | 8 | 335 | 0.0 | 8.0 | 0.00 | 1.85 | 0.00 | 90 | 1009.4 |
| 20260506221555 | 8 | 0 | 1.6 | 8.0 | 0.00 | 1.85 | 0.00 | 90 | 1009.4 |
| 20260506221030 | 8 | 343 | 0.0 | 9.7 | 0.00 | 1.85 | 0.00 | 90 | 1009.3 |
| 20260506220532 | 8 | 333 | 3.2 | 9.7 | 0.00 | 1.85 | 0.00 | 90 | 1009.4 |
| 20260506220046 | 8 | 0 | 1.6 | 6.4 | 0.00 | 1.85 | 0.00 | 90 | 1009.3 |
| 20260506215530 | 8 | 0 | 0.0 | 6.4 | 0.00 | 2.24 | 1.85 | 90 | 1009.3 |
| 20260506215030 | 8 | 0 | 0.0 | 6.4 | 0.00 | 2.24 | 1.85 | 90 | 1009.3 |
| 20260506214541 | 8 | 0 | 0.0 | 6.4 | 0.00 | 2.24 | 1.85 | 90 | 1009.3 |
| 20260506214031 | 8 | 291 | 1.6 | 6.4 | 0.00 | 2.24 | 1.85 | 90 | 1009.3 |
| 20260506213532 | 8 | 0 | 0.0 | 6.4 | 0.00 | 2.24 | 1.85 | 90 | 1009.3 |
| 20260506213043 | 8 | 0 | 0.0 | 6.4 | 0.00 | 2.24 | 1.85 | 90 | 1009.3 |
| 20260506212530 | 8 | 0 | 0.0 | 9.7 | 0.00 | 2.24 | 1.85 | 90 | 1009.3 |
| 20260506212032 | 8 | 281 | 0.0 | 9.7 | 0.00 | 2.24 | 1.85 | 90 | 1009.2 |
| 20260506211552 | 8 | 0 | 0.0 | 9.7 | 0.00 | 2.24 | 1.85 | 90 | 1009.2 |
| 20260506211030 | 8 | 0 | 0.0 | 9.7 | 0.00 | 2.24 | 1.85 | 90 | 1009.1 |
| 20260506210530 | 8 | 295 | 0.0 | 9.7 | 0.00 | 2.24 | 1.85 | 90 | 1009.2 |
| 20260506210047 | 8 | 0 | 0.0 | 9.7 | 0.00 | 2.24 | 1.85 | 90 | 1009.1 |
| 20260506205530 | 8 | 0 | 0.0 | 9.7 | 0.00 | 2.36 | 1.85 | 90 | 1009.1 |
| 20260506205030 | 8 | 0 | 0.0 | 8.0 | 0.00 | 2.36 | 1.85 | 90 | 1009.1 |
| 20260506204543 | 8 | 320 | 1.6 | 8.0 | 0.00 | 2.36 | 1.85 | 90 | 1009.1 |
| 20260506204031 | 8 | 0 | 1.6 | 9.7 | 0.00 | 2.36 | 1.85 | 90 | 1009.1 |
| 20260506203530 | 8 | 0 | 0.0 | 9.7 | 0.00 | 2.36 | 1.85 | 90 | 1009.1 |
| 20260506203049 | 8 | 314 | 3.2 | 9.7 | 0.00 | 2.36 | 1.85 | 90 | 1009.0 |
| 20260506202531 | 8 | 13 | 1.6 | 8.0 | 0.00 | 2.36 | 1.85 | 90 | 1008.9 |
| 20260506202033 | 8 | 38 | 1.6 | 6.4 | 0.00 | 2.36 | 1.85 | 90 | 1009.0 |
| 20260506201541 | 8 | 310 | 0.0 | 11.3 | 0.00 | 2.36 | 1.85 | 90 | 1008.9 |
| 20260506201032 | 8 | 335 | 0.0 | 12.9 | 0.00 | 2.36 | 1.85 | 90 | 1008.9 |
| 20260506200530 | 8 | 324 | 4.8 | 12.9 | 0.00 | 2.34 | 1.83 | 90 | 1008.9 |
| 20260506200042 | 8 | 345 | 0.0 | 9.7 | 0.00 | 2.34 | 1.83 | 90 | 1008.8 |
| 20260506195530 | 8 | 19 | 1.6 | 9.7 | 0.00 | 2.69 | 1.83 | 90 | 1008.8 |
| 20260506195030 | 8 | 329 | 1.6 | 8.0 | 0.00 | 2.69 | 1.83 | 90 | 1008.8 |
| 20260506194544 | 8 | 328 | 1.6 | 9.7 | 0.00 | 2.69 | 1.83 | 90 | 1008.8 |
| 20260506194031 | 8 | 0 | 1.6 | 9.7 | 0.00 | 2.69 | 1.83 | 90 | 1008.7 |
| 20260506193530 | 8 | 0 | 1.6 | 11.3 | 0.00 | 2.69 | 1.83 | 90 | 1008.7 |
| 20260506193050 | 8 | 6 | 1.6 | 11.3 | 0.00 | 2.69 | 1.83 | 90 | 1008.7 |
| 20260506192532 | 8 | 293 | 1.6 | 11.3 | 0.00 | 2.69 | 1.83 | 90 | 1008.6 |
| 20260506192028 | 8 | 353 | 1.6 | 9.7 | 0.00 | 2.69 | 1.83 | 90 | 1008.5 |
| 20260506191539 | 8 | 270 | 1.6 | 9.7 | 0.03 | 2.69 | 1.83 | 90 | 1008.4 |
| 20260506191031 | 8 | 0 | 0.0 | 6.4 | 0.03 | 2.69 | 1.83 | 90 | 1008.5 |
| 20260506190531 | 8 | 332 | 1.6 | 6.4 | 0.03 | 2.69 | 1.83 | 90 | 1008.4 |
| 20260506190038 | 8 | 0 | 0.0 | 8.0 | 0.00 | 2.67 | 1.80 | 90 | 1008.3 |
| 20260506185531 | 8 | 0 | 0.0 | 8.0 | 0.00 | 2.72 | 1.80 | 90 | 1008.3 |
| 20260506185031 | 8 | 345 | 0.0 | 8.0 | 0.00 | 2.72 | 1.80 | 90 | 1008.3 |
| 20260506184543 | 8 | 0 | 1.6 | 8.0 | 0.00 | 2.72 | 1.80 | 90 | 1008.1 |
| 20260506184032 | 8 | 317 | 0.0 | 8.0 | 0.00 | 2.72 | 1.80 | 90 | 1008.1 |
| 20260506183529 | 8 | 0 | 0.0 | 8.0 | 0.00 | 2.72 | 1.80 | 90 | 1008.1 |
| 20260506183040 | 8 | 0 | 0.0 | 8.0 | 0.00 | 2.72 | 1.80 | 90 | 1008.1 |
| 20260506182530 | 8 | 336 | 0.0 | 6.4 | 0.00 | 2.72 | 1.80 | 90 | 1008.1 |
| 20260506182030 | 8 | 0 | 0.0 | 8.0 | 0.00 | 2.72 | 1.80 | 90 | 1008.0 |
| 20260506181555 | 8 | 0 | 1.6 | 11.3 | 0.00 | 2.69 | 1.78 | 90 | 1007.9 |
| 20260506181031 | 8 | 343 | 3.2 | 11.3 | 0.00 | 2.69 | 1.78 | 89 | 1007.9 |
| 20260506180532 | 8 | 344 | 1.6 | 9.7 | 0.00 | 2.69 | 1.78 | 89 | 1007.8 |
| 20260506180038 | 8 | 0 | 3.2 | 11.3 | 0.00 | 2.69 | 1.78 | 90 | 1007.8 |
| 20260506175530 | 9 | 16 | 3.2 | 11.3 | 0.00 | 2.69 | 1.78 | 90 | 1007.7 |
| 20260506175030 | 9 | 0 | 3.2 | 9.7 | 0.00 | 2.69 | 1.78 | 90 | 1007.7 |
| 20260506174540 | 9 | 330 | 1.6 | 9.7 | 0.00 | 2.69 | 1.78 | 90 | 1007.7 |
| 20260506174035 | 9 | 0 | 0.0 | 8.0 | 0.00 | 2.69 | 1.78 | 90 | 1007.6 |
| 20260506173534 | 9 | 0 | 1.6 | 8.0 | 0.00 | 2.69 | 1.78 | 90 | 1007.7 |
| 20260506173111 | 9 | 0 | 0.0 | 11.3 | 0.00 | 2.69 | 1.78 | 90 | 1007.5 |
| 20260506172532 | 9 | 350 | 4.8 | 11.3 | 0.00 | 2.69 | 1.78 | 90 | 1007.5 |
| 20260506172030 | 9 | 287 | 3.2 | 12.9 | 0.00 | 2.69 | 1.78 | 90 | 1007.5 |
| 20260506171545 | 9 | 311 | 4.8 | 16.1 | 0.00 | 2.69 | 1.78 | 90 | 1007.4 |
| 20260506171032 | 9 | 283 | 6.4 | 16.1 | 0.00 | 2.69 | 1.78 | 90 | 1007.3 |
| 20260506170531 | 9 | 4 | 4.8 | 14.5 | 0.00 | 2.69 | 1.78 | 90 | 1007.3 |
| 20260506170056 | 9 | 0 | 3.2 | 14.5 | 0.00 | 2.69 | 1.78 | 90 | 1007.3 |
| 20260506165530 | 9 | 325 | 1.6 | 12.9 | 0.00 | 2.69 | 1.78 | 90 | 1007.3 |
| 20260506165031 | 9 | 331 | 1.6 | 16.1 | 0.00 | 2.69 | 1.78 | 90 | 1007.3 |
| 20260506164540 | 9 | 344 | 4.8 | 16.1 | 0.00 | 2.69 | 1.78 | 90 | 1007.3 |
| 20260506164034 | 9 | 0 | 6.4 | 12.9 | 0.00 | 2.69 | 1.78 | 90 | 1007.3 |
| 20260506163527 | 9 | 41 | 3.2 | 14.5 | 0.00 | 2.69 | 1.78 | 90 | 1007.2 |
| 20260506163051 | 9 | 352 | 6.4 | 14.5 | 0.00 | 2.69 | 1.78 | 90 | 1007.2 |
| 20260506162532 | 9 | 16 | 0.0 | 8.0 | 0.00 | 2.69 | 1.78 | 90 | 1007.2 |
| 20260506162030 | 9 | 0 | 3.2 | 9.7 | 0.00 | 2.69 | 1.78 | 90 | 1007.2 |
| 20260506161544 | 9 | 343 | 1.6 | 9.7 | 0.03 | 2.69 | 1.78 | 90 | 1007.2 |
| 20260506161032 | 9 | 0 | 1.6 | 8.0 | 0.03 | 2.69 | 1.78 | 90 | 1007.3 |
| 20260506160532 | 9 | 0 | 0.0 | 8.0 | 0.03 | 2.69 | 1.78 | 90 | 1007.2 |
| 20260506160045 | 9 | 55 | 3.2 | 14.5 | 0.00 | 2.67 | 1.78 | 90 | 1007.2 |
| 20260506155531 | 9 | 0 | 4.8 | 14.5 | 0.00 | 2.67 | 1.78 | 90 | 1007.2 |
| 20260506155030 | 9 | 335 | 1.6 | 11.3 | 0.00 | 2.67 | 1.78 | 90 | 1007.1 |
| 20260506154604 | 9 | 0 | 1.6 | 14.5 | 0.00 | 2.67 | 1.78 | 90 | 1007.2 |
| 20260506154031 | 9 | 31 | 4.8 | 14.5 | 0.00 | 2.67 | 1.78 | 90 | 1007.2 |
| 20260506153531 | 9 | 349 | 0.0 | 12.9 | 0.00 | 2.67 | 1.78 | 90 | 1007.2 |
| 20260506153037 | 9 | 34 | 1.6 | 14.5 | 0.03 | 2.67 | 1.78 | 90 | 1007.1 |
| 20260506152530 | 9 | 0 | 4.8 | 14.5 | 0.03 | 2.67 | 1.78 | 90 | 1007.1 |
| 20260506152030 | 9 | 0 | 3.2 | 11.3 | 0.03 | 2.67 | 1.78 | 90 | 1007.1 |
| 20260506151544 | 9 | 357 | 1.6 | 9.7 | 0.00 | 2.64 | 1.75 | 90 | 1007.2 |
| 20260506151031 | 9 | 0 | 1.6 | 8.0 | 0.00 | 2.64 | 1.75 | 90 | 1007.2 |
| 20260506150528 | 9 | 0 | 1.6 | 8.0 | 0.00 | 2.64 | 1.75 | 90 | 1007.1 |
| 20260506150041 | 9 | 16 | 1.6 | 9.7 | 0.00 | 2.64 | 1.75 | 90 | 1007.0 |
| 20260506145533 | 9 | 0 | 1.6 | 14.5 | 0.03 | 2.72 | 1.75 | 90 | 1006.9 |
| 20260506145030 | 9 | 349 | 4.8 | 14.5 | 0.03 | 2.72 | 1.75 | 90 | 1007.0 |
| 20260506144550 | 9 | 0 | 3.2 | 12.9 | 0.03 | 2.72 | 1.75 | 90 | 1006.9 |
| 20260506144031 | 9 | 347 | 3.2 | 12.9 | 0.05 | 2.72 | 1.75 | 90 | 1006.9 |
| 20260506143532 | 9 | 0 | 1.6 | 12.9 | 0.05 | 2.72 | 1.75 | 90 | 1007.0 |
| 20260506143041 | 9 | 0 | 3.2 | 12.9 | 0.03 | 2.72 | 1.73 | 90 | 1006.9 |
| 20260506142532 | 9 | 0 | 0.0 | 9.7 | 0.05 | 2.72 | 1.73 | 90 | 1006.9 |
| 20260506142030 | 9 | 0 | 0.0 | 9.7 | 0.05 | 2.72 | 1.73 | 90 | 1006.9 |
| 20260506141537 | 9 | 308 | 1.6 | 8.0 | 0.05 | 2.72 | 1.73 | 90 | 1006.9 |
| 20260506141032 | 9 | 256 | 0.0 | 8.0 | 0.05 | 2.72 | 1.73 | 90 | 1006.8 |
| 20260506140530 | 9 | 0 | 1.6 | 8.0 | 0.05 | 2.72 | 1.73 | 90 | 1006.8 |
| 20260506140040 | 9 | 31 | 1.6 | 8.0 | 0.05 | 2.72 | 1.73 | 90 | 1006.8 |
| 20260506135531 | 9 | 289 | 0.0 | 6.4 | 0.03 | 2.69 | 1.70 | 90 | 1006.8 |
| 20260506135031 | 9 | 289 | 0.0 | 8.0 | 0.03 | 2.69 | 1.70 | 90 | 1006.8 |
| 20260506134542 | 9 | 297 | 1.6 | 8.0 | 0.03 | 2.69 | 1.70 | 90 | 1006.8 |
| 20260506134031 | 9 | 303 | 1.6 | 9.7 | 0.00 | 2.67 | 1.68 | 90 | 1006.8 |
| 20260506133531 | 9 | 0 | 1.6 | 9.7 | 0.00 | 2.67 | 1.68 | 90 | 1006.8 |
| 20260506133056 | 9 | 21 | 1.6 | 6.4 | 0.00 | 2.67 | 1.68 | 90 | 1006.8 |
| 20260506132530 | 9 | 0 | 1.6 | 6.4 | 0.00 | 2.64 | 1.68 | 90 | 1006.9 |
| 20260506132035 | 8 | 279 | 1.6 | 6.4 | 0.00 | 2.64 | 1.68 | 90 | 1006.8 |
| 20260506131539 | 9 | 269 | 1.6 | 6.4 | 0.00 | 2.64 | 1.68 | 89 | 1006.8 |
| 20260506131032 | 9 | 0 | 0.0 | 8.0 | 0.00 | 2.64 | 1.68 | 89 | 1006.8 |
| 20260506130533 | 9 | 0 | 0.0 | 8.0 | 0.00 | 2.64 | 1.68 | 90 | 1006.8 |
| 20260506130040 | 9 | 0 | 1.6 | 8.0 | 0.00 | 2.64 | 1.68 | 90 | 1006.8 |
| 20260506125530 | 9 | 276 | 0.0 | 11.3 | 0.00 | 2.64 | 1.68 | 89 | 1006.7 |
| 20260506125030 | 9 | 307 | 1.6 | 11.3 | 0.00 | 2.64 | 1.68 | 90 | 1006.6 |
| 20260506124539 | 9 | 299 | 3.2 | 12.9 | 0.00 | 2.64 | 1.68 | 89 | 1006.7 |
| 20260506124031 | 9 | 0 | 1.6 | 12.9 | 0.00 | 2.64 | 1.68 | 90 | 1006.5 |
| 20260506123532 | 9 | 318 | 1.6 | 9.7 | 0.00 | 2.64 | 1.68 | 90 | 1006.6 |
| 20260506123044 | 9 | 12 | 1.6 | 11.3 | 0.00 | 2.64 | 1.68 | 90 | 1006.6 |
| 20260506122531 | 9 | 0 | 1.6 | 14.5 | 0.00 | 2.64 | 1.68 | 90 | 1006.5 |
| 20260506122031 | 9 | 330 | 1.6 | 14.5 | 0.00 | 2.64 | 1.68 | 89 | 1006.4 |
| 20260506121544 | 10 | 287 | 3.2 | 14.5 | 0.00 | 2.64 | 1.68 | 90 | 1006.4 |
| 20260506121031 | 10 | 21 | 1.6 | 9.7 | 0.00 | 2.64 | 1.68 | 90 | 1006.4 |
| 20260506120528 | 10 | 276 | 1.6 | 9.7 | 0.00 | 2.64 | 1.68 | 90 | 1006.3 |
| 20260506120043 | 10 | 318 | 1.6 | 11.3 | 0.00 | 2.64 | 1.68 | 90 | 1006.1 |
| 20260506115531 | 10 | 299 | 3.2 | 11.3 | 0.00 | 2.64 | 1.68 | 90 | 1006.1 |
| 20260506115030 | 10 | 359 | 4.8 | 11.3 | 0.00 | 2.64 | 1.68 | 90 | 1006.1 |
| 20260506114546 | 10 | 0 | 3.2 | 11.3 | 0.00 | 2.64 | 1.68 | 90 | 1006.0 |
| 20260506114032 | 10 | 30 | 3.2 | 11.3 | 0.00 | 2.64 | 1.68 | 91 | 1006.0 |
| 20260506113530 | 10 | 358 | 3.2 | 9.7 | 0.00 | 2.64 | 1.68 | 91 | 1006.1 |
| 20260506113046 | 10 | 25 | 3.2 | 11.3 | 0.00 | 2.64 | 1.68 | 90 | 1006.1 |
| 20260506112531 | 10 | 0 | 3.2 | 11.3 | 0.00 | 2.64 | 1.68 | 91 | 1006.1 |
| 20260506112030 | 10 | 331 | 3.2 | 11.3 | 0.00 | 2.64 | 1.68 | 91 | 1006.1 |
| 20260506111546 | 10 | 0 | 0.0 | 12.9 | 0.00 | 2.64 | 1.68 | 91 | 1006.1 |
| 20260506111031 | 10 | 19 | 3.2 | 17.7 | 0.00 | 2.64 | 1.68 | 91 | 1006.1 |
| 20260506110531 | 10 | 51 | 8.0 | 17.7 | 0.00 | 2.64 | 1.68 | 91 | 1006.1 |
| 20260506110046 | 9 | 354 | 4.8 | 14.5 | 0.00 | 2.64 | 1.68 | 90 | 1006.0 |
| 20260506105531 | 9 | 352 | 1.6 | 14.5 | 0.03 | 2.64 | 1.68 | 91 | 1006.1 |
| 20260506105029 | 9 | 345 | 3.2 | 14.5 | 0.03 | 2.64 | 1.68 | 91 | 1006.0 |
| 20260506104607 | 9 | 356 | 3.2 | 14.5 | 0.03 | 2.64 | 1.68 | 91 | 1006.0 |
| 20260506104033 | 9 | 344 | 6.4 | 14.5 | 0.03 | 2.64 | 1.68 | 91 | 1005.9 |
| 20260506103533 | 9 | 310 | 4.8 | 14.5 | 0.03 | 2.64 | 1.68 | 91 | 1006.0 |
| 20260506103042 | 9 | 304 | 4.8 | 11.3 | 0.03 | 2.64 | 1.68 | 91 | 1006.0 |
| 20260506102533 | 9 | 327 | 1.6 | 11.3 | 0.03 | 2.64 | 1.68 | 90 | 1005.9 |
| 20260506102031 | 10 | 0 | 4.8 | 14.5 | 0.00 | 2.62 | 1.65 | 91 | 1005.9 |
| 20260506101542 | 9 | 355 | 4.8 | 14.5 | 0.00 | 2.62 | 1.65 | 90 | 1005.8 |
| 20260506101032 | 9 | 10 | 6.4 | 14.5 | 0.00 | 2.62 | 1.65 | 91 | 1005.8 |
| 20260506100530 | 9 | 25 | 4.8 | 14.5 | 0.00 | 2.62 | 1.65 | 90 | 1005.8 |
| 20260506100046 | 9 | 335 | 4.8 | 16.1 | 0.00 | 2.62 | 1.65 | 90 | 1005.7 |
| 20260506095530 | 9 | 297 | 6.4 | 16.1 | 0.00 | 2.62 | 1.63 | 90 | 1005.7 |
| 20260506095028 | 9 | 270 | 3.2 | 12.9 | 0.00 | 2.62 | 1.63 | 90 | 1005.6 |
| 20260506094543 | 9 | 308 | 3.2 | 12.9 | 0.00 | 2.62 | 1.63 | 90 | 1005.7 |
| 20260506094029 | 10 | 9 | 3.2 | 12.9 | 0.00 | 2.62 | 1.63 | 90 | 1005.5 |
| 20260506093528 | 10 | 335 | 3.2 | 9.7 | 0.00 | 2.62 | 1.63 | 90 | 1005.5 |
| 20260506093043 | 10 | 347 | 1.6 | 11.3 | 0.00 | 2.62 | 1.63 | 90 | 1005.6 |
| 20260506092531 | 10 | 348 | 3.2 | 11.3 | 0.00 | 2.62 | 1.63 | 90 | 1005.5 |
| 20260506092027 | 11 | 0 | 1.6 | 9.7 | 0.00 | 2.62 | 1.63 | 90 | 1005.4 |
| 20260506091539 | 11 | 0 | 3.2 | 12.9 | 0.03 | 2.62 | 1.63 | 90 | 1005.4 |
| 20260506091035 | 11 | 6 | 4.8 | 12.9 | 0.03 | 2.62 | 1.63 | 91 | 1005.2 |
| 20260506090532 | 11 | 12 | 4.8 | 14.5 | 0.03 | 2.62 | 1.63 | 91 | 1005.2 |
| 20260506090044 | 11 | 43 | 6.4 | 14.5 | 0.05 | 2.62 | 1.63 | 91 | 1005.3 |
| 20260506085532 | 11 | 0 | 4.8 | 11.3 | 0.03 | 2.59 | 1.60 | 91 | 1005.2 |
| 20260506085030 | 11 | 41 | 4.8 | 14.5 | 0.03 | 2.59 | 1.60 | 91 | 1005.2 |
| 20260506084540 | 11 | 59 | 6.4 | 16.1 | 0.03 | 2.59 | 1.60 | 91 | 1005.1 |
| 20260506084033 | 11 | 37 | 8.0 | 16.1 | 0.03 | 2.59 | 1.60 | 91 | 1005.1 |
| 20260506083531 | 11 | 31 | 4.8 | 11.3 | 0.03 | 2.59 | 1.60 | 91 | 1005.1 |
| 20260506083048 | 11 | 14 | 3.2 | 8.0 | 0.05 | 2.59 | 1.60 | 91 | 1005.1 |
| 20260506082532 | 11 | 41 | 4.8 | 8.0 | 0.05 | 2.59 | 1.60 | 91 | 1005.0 |
| 20260506082030 | 11 | 18 | 3.2 | 8.0 | 0.05 | 2.59 | 1.60 | 91 | 1005.1 |
| 20260506081542 | 11 | 38 | 3.2 | 12.9 | 0.05 | 2.57 | 1.57 | 91 | 1005.0 |
| 20260506081032 | 11 | 21 | 4.8 | 12.9 | 0.08 | 2.57 | 1.57 | 91 | 1005.0 |
| 20260506080528 | 10 | 39 | 4.8 | 12.9 | 0.08 | 2.57 | 1.57 | 91 | 1004.9 |
| 20260506073041 | 11 | 13 | 6.4 | 12.9 | 0.10 | 2.54 | 1.55 | 91 | 1004.8 |
| 20260506072535 | 11 | 28 | 3.2 | 12.9 | 0.13 | 2.54 | 1.55 | 91 | 1004.7 |
| 20260506072030 | 10 | 337 | 4.8 | 11.3 | 0.13 | 2.54 | 1.55 | 91 | 1004.8 |
| 20260506071540 | 10 | 337 | 4.8 | 9.7 | 0.13 | 2.51 | 1.52 | 91 | 1004.8 |
| 20260506071028 | 11 | 342 | 0.0 | 8.0 | 0.10 | 2.49 | 1.50 | 91 | 1004.7 |
| 20260506070531 | 11 | 336 | 3.2 | 9.7 | 0.08 | 2.46 | 1.50 | 91 | 1004.6 |
| 20260506062027 | 11 | 11 | 3.2 | 8.0 | 0.08 | 2.39 | 1.40 | 91 | 1004.6 |
| 20260506061540 | 11 | 0 | 1.6 | 6.4 | 0.05 | 2.36 | 1.40 | 91 | 1004.4 |
| 20260506061029 | 11 | 10 | 1.6 | 6.4 | 0.08 | 2.36 | 1.40 | 91 | 1004.4 |
| 20260506060529 | 11 | 29 | 3.2 | 8.0 | 0.08 | 2.36 | 1.40 | 91 | 1004.3 |
| 20260506051027 | 10 | 44 | 3.2 | 8.0 | 0.15 | 2.29 | 1.30 | 91 | 1004.4 |
| 20260506050527 | 11 | 355 | 1.6 | 6.4 | 0.13 | 2.26 | 1.30 | 91 | 1004.5 |
| 20260506045030 | 11 | 66 | 0.0 | 4.8 | 0.15 | 2.24 | 1.27 | 91 | 1004.5 |
| 20260506044538 | 10 | 66 | 1.6 | 6.4 | 0.13 | 2.24 | 1.24 | 91 | 1004.4 |
| 20260506044032 | 10 | 55 | 1.6 | 6.4 | 0.10 | 2.21 | 1.22 | 91 | 1004.3 |
| 20260506043532 | 10 | 0 | 1.6 | 6.4 | 0.13 | 2.21 | 1.22 | 91 | 1004.4 |
| 20260506043052 | 10 | 0 | 0.0 | 4.8 | 0.13 | 2.18 | 1.22 | 91 | 1004.4 |
| 20260506042532 | 10 | 0 | 0.0 | 8.0 | 0.10 | 2.16 | 1.19 | 91 | 1004.4 |
| 20260506042030 | 10 | 30 | 1.6 | 14.5 | 0.10 | 2.16 | 1.17 | 90 | 1004.4 |
| 20260506041553 | 10 | 60 | 1.6 | 14.5 | 0.08 | 2.13 | 1.14 | 91 | 1004.3 |
| 20260506041028 | 10 | 64 | 4.8 | 14.5 | 0.08 | 2.13 | 1.14 | 91 | 1004.3 |
| 20260506040530 | 10 | 0 | 3.2 | 14.5 | 0.08 | 2.13 | 1.14 | 91 | 1004.3 |
| 20260506040049 | 10 | 20 | 4.8 | 14.5 | 0.08 | 2.11 | 1.12 | 90 | 1004.3 |
| 20260506035531 | 10 | 35 | 3.2 | 11.3 | 0.08 | 2.11 | 1.12 | 91 | 1004.3 |
| 20260506035031 | 10 | 31 | 4.8 | 11.3 | 0.05 | 2.08 | 1.12 | 91 | 1004.4 |
| 20260506034540 | 10 | 30 | 3.2 | 9.7 | 0.05 | 2.08 | 1.12 | 91 | 1004.3 |
| 20260506034027 | 11 | 13 | 3.2 | 9.7 | 0.08 | 2.08 | 1.12 | 91 | 1004.4 |
| 20260506033530 | 11 | 0 | 1.6 | 8.0 | 0.05 | 2.06 | 1.09 | 91 | 1004.5 |
| 20260506033036 | 11 | 32 | 1.6 | 6.4 | 0.05 | 2.06 | 1.07 | 91 | 1004.6 |
| 20260506032530 | 11 | 26 | 1.6 | 11.3 | 0.05 | 2.06 | 1.07 | 91 | 1004.6 |
| 20260506032031 | 11 | 0 | 3.2 | 11.3 | 0.05 | 2.03 | 1.04 | 91 | 1004.6 |
| 20260506031541 | 11 | 331 | 0.0 | 4.8 | 0.05 | 2.03 | 1.04 | 91 | 1004.7 |
| 20260506031031 | 11 | 331 | 0.0 | 4.8 | 0.08 | 2.03 | 1.04 | 91 | 1004.7 |
| 20260506030527 | 11 | 60 | 0.0 | 4.8 | 0.08 | 2.03 | 1.04 | 91 | 1004.8 |
| 20260506030042 | 11 | 41 | 1.6 | 4.8 | 0.10 | 2.03 | 1.04 | 91 | 1004.8 |
| 20260506025530 | 11 | 0 | 0.0 | 8.0 | 0.10 | 2.03 | 1.04 | 91 | 1004.8 |
| 20260506025033 | 11 | 37 | 1.6 | 8.0 | 0.13 | 2.03 | 1.04 | 91 | 1004.8 |
| 20260506024544 | 11 | 32 | 1.6 | 8.0 | 0.13 | 2.01 | 1.02 | 91 | 1004.8 |
| 20260506024031 | 11 | 62 | 3.2 | 8.0 | 0.15 | 2.01 | 1.02 | 91 | 1004.9 |
| 20260506023529 | 11 | 41 | 3.2 | 6.4 | 0.15 | 2.01 | 1.02 | 91 | 1004.9 |
| 20260506023040 | 11 | 62 | 1.6 | 6.4 | 0.15 | 1.98 | 1.02 | 91 | 1005.0 |
| 20260506022530 | 11 | 0 | 1.6 | 11.3 | 0.18 | 1.98 | 1.02 | 91 | 1005.0 |
| 20260506022030 | 11 | 70 | 3.2 | 11.3 | 0.18 | 1.96 | 0.99 | 91 | 1005.0 |
| 20260506021553 | 11 | 44 | 3.2 | 8.0 | 0.18 | 1.96 | 0.99 | 91 | 1005.0 |
| 20260506021031 | 11 | 0 | 1.6 | 6.4 | 0.18 | 1.96 | 0.97 | 91 | 1005.1 |
| 20260506020531 | 11 | 0 | 1.6 | 6.4 | 0.18 | 1.93 | 0.94 | 91 | 1005.1 |
| 20260506020038 | 11 | 32 | 3.2 | 6.4 | 0.18 | 1.91 | 0.94 | 91 | 1005.2 |
| 20260506015531 | 11 | 45 | 3.2 | 11.3 | 0.20 | 1.91 | 0.94 | 91 | 1005.2 |
| 20260506015028 | 11 | 41 | 1.6 | 11.3 | 0.20 | 1.88 | 0.91 | 91 | 1005.2 |
| 20260506014539 | 11 | 45 | 3.2 | 9.7 | 0.20 | 1.88 | 0.89 | 91 | 1005.1 |
| 20260506014027 | 11 | 35 | 1.6 | 8.0 | 0.20 | 1.85 | 0.86 | 91 | 1005.3 |
| 20260506013527 | 11 | 66 | 3.2 | 9.7 | 0.23 | 1.85 | 0.86 | 91 | 1005.3 |
| 20260506013041 | 11 | 70 | 3.2 | 9.7 | 0.23 | 1.83 | 0.84 | 91 | 1005.3 |
| 20260506012527 | 11 | 58 | 3.2 | 9.7 | 0.23 | 1.80 | 0.84 | 91 | 1005.3 |
| 20260506012028 | 11 | 58 | 0.0 | 6.4 | 0.20 | 1.78 | 0.81 | 91 | 1005.4 |
| 20260506011549 | 11 | 65 | 1.6 | 9.7 | 0.20 | 1.78 | 0.79 | 91 | 1005.5 |
| 20260506011032 | 11 | 0 | 1.6 | 12.9 | 0.20 | 1.75 | 0.76 | 91 | 1005.4 |
| 20260506010530 | 11 | 56 | 3.2 | 12.9 | 0.20 | 1.73 | 0.74 | 91 | 1005.4 |
| 20260506010048 | 11 | 0 | 1.6 | 6.4 | 0.20 | 1.70 | 0.74 | 91 | 1005.5 |
| 20260506005531 | 11 | 70 | 1.6 | 11.3 | 0.20 | 1.68 | 0.71 | 91 | 1005.6 |
| 20260506005031 | 11 | 54 | 3.2 | 11.3 | 0.23 | 1.68 | 0.69 | 91 | 1005.6 |
| 20260506004538 | 11 | 64 | 3.2 | 11.3 | 0.23 | 1.65 | 0.66 | 91 | 1005.7 |
| 20260506004029 | 11 | 58 | 4.8 | 9.7 | 0.25 | 1.63 | 0.64 | 91 | 1005.7 |
| 20260506003528 | 11 | 36 | 3.2 | 14.5 | 0.28 | 1.60 | 0.64 | 91 | 1005.7 |
| 20260506003040 | 11 | 49 | 3.2 | 14.5 | 0.28 | 1.57 | 0.61 | 91 | 1005.8 |
| 20260506002530 | 11 | 62 | 4.8 | 14.5 | 0.28 | 1.57 | 0.58 | 91 | 1005.8 |
| 20260506002028 | 11 | 45 | 3.2 | 11.3 | 0.28 | 1.55 | 0.56 | 91 | 1005.9 |
| 20260506001543 | 11 | 49 | 1.6 | 6.4 | 0.28 | 1.55 | 0.56 | 91 | 1006.0 |
| 20260506001028 | 11 | 59 | 1.6 | 6.4 | 0.28 | 1.52 | 0.56 | 91 | 1006.0 |
| 20260506000527 | 11 | 24 | 1.6 | 6.4 | 0.28 | 1.50 | 0.53 | 91 | 1006.1 |
| 20260506000042 | 11 | 53 | 0.0 | 4.8 | 0.28 | 1.50 | 0.51 | 90 | 1006.1 |
| 20260505235530 | 11 | 53 | 1.6 | 4.8 | 0.28 | 1.50 | 0.46 | 91 | 1006.2 |
| 20260505235031 | 12 | 24 | 1.6 | 4.8 | 0.28 | 1.47 | 0.46 | 91 | 1006.2 |
| 20260505234604 | 12 | 6 | 0.0 | 3.2 | 0.25 | 1.42 | 0.41 | 91 | 1006.3 |
| 20260505234031 | 12 | 72 | 0.0 | 4.8 | 0.25 | 1.40 | 0.38 | 91 | 1006.3 |